Onalaska, WI

6:02 PM CDT on August 27, 2016 (GMT -0500)
La Crosse Municipal

Weather History for KLSE - July, 2013

Change the Weather History Date:

Monday, July 22, 2013

  Actual Average Record
Temperature  
Mean Temperature 77 °F 74 °F  
Max Temperature 90 °F 84 °F 102 °F (1934)
Min Temperature 63 °F 63 °F 47 °F (1947)
Degree Days  
Heating Degree Days 0 0  
Month to date heating degree days 0 0  
Since 1 June heating degree days 44  
Since 1 July heating degree days 0 0  
Cooling Degree Days 12 9  
Month to date cooling degree days 283 197  
Year to date cooling degree days 497 411  
Since 1 June cooling degree days 437  
Growing Degree Days 26 (Base 50)    
Moisture  
Dew Point 66 °F    
Average Humidity 75    
Maximum Humidity 93    
Minimum Humidity 56    
Precipitation  
Precipitation 0.23 in 0.14 in 2.27 in (1883)
Month to date precipitation 0.59 3.03  
Year to date precipitation 25.34 18.44  
Snow  
Snow 0.00 in 0.00 in 0.00 in (2002)
Month to date snowfall 0.0 0.0  
Since 1 June snowfall 0.0  
Since 1 July snowfall 0.0 0.0  
Snow Depth 0.00 in    
Sea Level Pressure  
Sea Level Pressure 29.74 in    
Wind  
Wind Speed 8 mph (South)    
Max Wind Speed 21 mph    
Max Gust Speed 26 mph    
Visibility 9 miles    
Events Rain , Thunderstorm    
T = Trace of Precipitation, MM = Missing Value Source: NWS Daily Summary

Daily Weather History Graph

Daily Weather History Graph

Search for Another Location

Airport or City:

Trip Planner

Search our weather history database for the weather conditions in past years. The results will help you decide how hot, cold, wet, or windy it might be!

Date:

Astronomy

Jul. 22, 2013 Rise Set
Actual Time 5:43 AM CDT 8:39 PM CDT
Civil Twilight 5:09 AM CDT 9:12 PM CDT
Nautical Twilight 4:25 AM CDT 9:56 PM CDT
Astronomical Twilight 3:34 AM CDT 10:46 PM CDT
Moon 8:21 PM CDT (7/22) 5:42 AM CDT (7/22)
Length of Visible Light 16h 03m
Length of Day
14h 55m
Full, 100% of the Moon is Illuminated
Jul 22
Full
Jul 22
Full
Jul 29
Last Quarter
Aug 6
New
Aug 14
First Quarter

Hourly Weather History & Observations

Time (CDT) Temp. Heat Index Dew Point Humidity Pressure Visibility Wind Dir Wind Speed Gust Speed Precip Events Conditions
12:53 AM 64.9 °F - 61.0 °F 87% 29.84 in 10.0 mi SE 5.8 mph - N/A   Clear
1:53 AM 64.0 °F - 61.0 °F 90% 29.83 in 10.0 mi ESE 6.9 mph - N/A   Clear
2:53 AM 64.0 °F - 61.0 °F 90% 29.84 in 10.0 mi Calm Calm - N/A   Partly Cloudy
3:53 AM 63.0 °F - 60.1 °F 90% 29.81 in 10.0 mi ESE 4.6 mph - N/A   Clear
4:53 AM 63.0 °F - 60.1 °F 90% 29.78 in 10.0 mi SE 6.9 mph - N/A   Clear
5:53 AM 63.0 °F - 60.1 °F 90% 29.79 in 10.0 mi Calm Calm - N/A   Clear
6:05 AM 62.6 °F - 60.8 °F 94% 29.80 in 10.0 mi SSE 4.6 mph - N/A   Partly Cloudy
6:23 AM 64.4 °F - 62.6 °F 94% 29.81 in 10.0 mi SSE 4.6 mph - N/A   Mostly Cloudy
6:53 AM 66.0 °F - 63.0 °F 90% 29.80 in 10.0 mi SSW 5.8 mph - N/A   Overcast
7:53 AM 68.0 °F - 63.0 °F 84% 29.79 in 10.0 mi South 8.1 mph - N/A   Overcast
8:44 AM 68.0 °F - 62.6 °F 83% 29.80 in 10.0 mi South 6.9 mph - N/A   Overcast
8:53 AM 69.1 °F - 63.0 °F 81% 29.77 in 10.0 mi South 8.1 mph - N/A   Overcast
9:53 AM 72.0 °F - 64.9 °F 78% 29.77 in 10.0 mi South 13.8 mph - N/A   Overcast
10:11 AM 73.4 °F - 64.4 °F 73% 29.80 in 10.0 mi South 13.8 mph - N/A   Overcast
10:53 AM 75.0 °F - 64.9 °F 71% 29.77 in 10.0 mi South 8.1 mph - N/A   Mostly Cloudy
11:11 AM 75.2 °F - 64.4 °F 69% 29.79 in 10.0 mi SSW 11.5 mph - N/A   Scattered Clouds
11:53 AM 79.0 °F - 66.0 °F 64% 29.75 in 10.0 mi SSE 10.4 mph - N/A   Partly Cloudy
12:53 PM 82.9 °F 85.8 °F 68.0 °F 60% 29.70 in 10.0 mi South 9.2 mph - N/A   Clear
1:53 PM 86.0 °F 90.1 °F 69.1 °F 57% 29.69 in 10.0 mi South 11.5 mph - N/A   Clear
2:53 PM 88.0 °F 93.8 °F 71.1 °F 57% 29.68 in 10.0 mi SSW 11.5 mph 18.4 mph N/A   Mostly Cloudy
3:53 PM 89.1 °F 95.0 °F 71.1 °F 55% 29.65 in 10.0 mi South 13.8 mph - N/A   Partly Cloudy
4:53 PM 86.0 °F 91.5 °F 71.1 °F 61% 29.63 in 10.0 mi South 12.7 mph - N/A Thunderstorm Overcast
5:43 PM 78.8 °F - 73.4 °F 83% 29.71 in 2.5 mi North 6.9 mph - 0.14 in Rain Heavy Rain
5:45 PM 78.8 °F - 75.2 °F 89% 29.72 in 3.0 mi North 10.4 mph - 0.14 in Rain , Thunderstorm Heavy Thunderstorms and Rain
5:53 PM 75.0 °F - 71.1 °F 87% 29.68 in 4.0 mi NNE 16.1 mph 26.5 mph 0.20 in Rain , Thunderstorm Heavy Thunderstorms and Rain
6:50 PM 73.4 °F - 66.2 °F 78% 29.69 in 10.0 mi West 3.5 mph - 0.03 in   Scattered Clouds
6:53 PM 73.9 °F - 66.9 °F 79% 29.66 in 10.0 mi Calm Calm - 0.03 in   Scattered Clouds
7:07 PM 75.2 °F - 66.2 °F 73% 29.68 in 10.0 mi Calm Calm - N/A Thunderstorm Mostly Cloudy
7:53 PM 73.9 °F - 69.1 °F 85% 29.67 in 10.0 mi South 10.4 mph 21.9 mph N/A Thunderstorm Overcast
8:03 PM 73.4 °F - 68.0 °F 83% 29.70 in 10.0 mi SSE 8.1 mph - N/A   Overcast
8:53 PM 73.9 °F - 66.0 °F 76% 29.66 in 10.0 mi South 10.4 mph - N/A   Partly Cloudy
9:53 PM 73.9 °F - 66.9 °F 79% 29.69 in 10.0 mi South 9.2 mph - N/A   Mostly Cloudy
10:53 PM 72.0 °F - 66.9 °F 84% 29.71 in 10.0 mi Calm Calm - N/A   Clear
11:53 PM 71.1 °F - 66.9 °F 87% 29.74 in 10.0 mi North 5.8 mph - N/A   Scattered Clouds